Location: Four Corners
(38.2757°N, 122.4608°W)
Time: 21:04:56
(UTC+00:00)

Shenzhou-11 Module - Pass Details

Date: 08 December 2019
Orbit: 303 x 315 km, 42.8° (Epoch: 18 January)

Event Time Altitude Azimuth Distance (km) Brightness Sun altitude
Rises 01:37:42 0° 277° (W) 2,064 7.0 -9.4°
Reaches altitude 10° 01:39:49 10° 289° (WNW) 1,229 5.4 -9.8°
Maximum altitude 01:42:20 31° 354° (N) 595 2.9 -10.3°
Enters shadow 01:43:58 17° 49° (NE) 917 3.4 -10.6°
